Zurück zum Katalog

SL-8 DEB

AktivLEO
NORAD 39838·DEBRIS·🇷🇺 Russia

Gestartet Feb 12, 1991 von Plesetsk Cosmodrome

Loading…

Nächste Überflüge (nächste 24 Stunden)

TLE

AlterndSource: Space-Track

Epoche: Sep 8, 2026, 07:47 UTC

1 39838U 91009DW  26251.32445653 -.00000024  00000-0 -11604-3 0  9991
2 39838  74.1130 104.4903 0232775  55.5800 306.6995 12.10661382298534

Verfolge SL-8 DEB in Echtzeit mit AllMySat

Download on the App Store